Flag for Germany Weather past 2 weeks in Laatzen, Lower Saxony, Germany

Now
35 °F

Low clouds.


Feels Like: 29 °F
Forecast: 37 / 43 °F
Wind: 7 mph from West

Location: Hannover

Current Time: Apr 1, 2015 at 8:23:11 PM

Latest Report: Apr 1, 2015 at 8:00 PM


Visibility: 19 mi

Pressure: 29.93 "Hg

Humidity: 95%

Dew point: 34 °F

Location of LaatzenLocation

Historic Weather in Laatzen — Graph

°F

Laatzen temperature yesterday

Maximum temperature yesterday: 49 °F (at 1:00 PM)
Minimum temperature yesterday: 36 °F (at 4:00 AM)
Average temperature yesterday: 43 °F

Past Weeks' High & Low Weather Summary

 TemperatureHumidityPressure
High60 °F (Mar 25, 5:00 PM)99% (Mar 21, 12:00 AM)30.41 "Hg (Mar 21, 12:00 AM)
Low28 °F (Mar 20, 6:00 AM)37% (Mar 19, 4:00 PM)29.03 "Hg (Mar 31, 8:00 AM)
Average43 °F76%29.90 "Hg
* Reported Mar 17 6:00 PM — Apr 1 7:00 PM, Laatzen, Weather by CustomWeather, © 2015

Note: Actual official high and low records may vary slightly from our data, if they occured in-between our weather recording intervals... More about our weather records

Advertising

Laatzen weather history for previous 24 hours

 ConditionsComfort  
Time TempWeatherWind HumidityBarometerVisibility
7:00 PM
Wed, Apr 1
38 °FSleet. Overcast.6 mph89%29.91 "Hg5 mi
6:00 PM37 °FSprinkles. Overcast.8 mph89%29.90 "Hg22 mi
4:00 PM38 °FSleet. Overcast.N/A80%29.90 "Hg19 mi
3:00 PM44 °FOvercast.12 mph65%29.87 "Hg22 mi
2:00 PM44 °FPartly sunny.9 mph66%29.87 "Hg22 mi
1:00 PM44 °FPartly sunny.13 mph72%29.86 "Hg22 mi
12:00 PM43 °FOvercast.13 mph68%29.84 "Hg22 mi
11:00 AM42 °FOvercast.14 mph77%29.83 "Hg22 mi
10:00 AM39 °FOvercast.10 mph85%29.80 "Hg22 mi
9:00 AM37 °FPartly sunny.10 mph90%29.79 "Hg12 mi
8:00 AM37 °FLow clouds.12 mph88%29.75 "Hg22 mi
7:00 AM36 °FRain showers. Low clouds.13 mph90%29.72 "Hg4 mi
6:00 AM38 °FOvercast.10 mph80%29.69 "Hg22 mi
4:00 AM36 °FOvercast.7 mph90%29.67 "Hg16 mi
3:00 AM38 °FPassing clouds.10 mph79%29.64 "Hg19 mi
2:00 AM38 °FThunderstorms. Passing clouds.9 mph79%29.62 "Hg19 mi
1:00 AM39 °FSprinkles. Low clouds.13 mph79%29.61 "Hg4 mi
12:00 AM38 °FPassing clouds.9 mph82%29.59 "Hg16 mi
10:00 PM
Tue, Mar 31
39 °FPassing clouds.7 mph85%29.57 "Hg22 mi
9:00 PM39 °FSprinkles. Low clouds.14 mph89%29.56 "Hg5 mi
8:00 PM44 °FSprinkles. Overcast.14 mph63%29.50 "Hg12 mi
Weather by CustomWeather, © 2015

See weather overviewHow to use our weather pages